TimeEST,TemperatureF,Dew PointF,Humidity,Sea Level PressureIn,VisibilityMPH,Wind Direction,Wind SpeedMPH,Gust SpeedMPH,PrecipitationIn,Events,Conditions,WindDirDegrees,DateUTC
12:53 AM,27.0,18.0,69,30.15,10.0,Calm,Calm,-,N/A,,Clear,0,2013-01-21 05:53:00
1:53 AM,25.0,19.0,78,30.14,10.0,Calm,Calm,-,N/A,,Clear,0,2013-01-21 06:53:00
2:53 AM,25.0,19.0,78,30.14,10.0,Calm,Calm,-,N/A,,Clear,0,2013-01-21 07:53:00
3:53 AM,23.0,19.0,85,30.13,10.0,Calm,Calm,-,N/A,,Clear,0,2013-01-21 08:53:00
4:53 AM,21.9,18.0,85,30.12,10.0,Calm,Calm,-,N/A,,Clear,0,2013-01-21 09:53:00
5:53 AM,21.9,17.1,82,30.13,10.0,Calm,Calm,-,N/A,,Clear,0,2013-01-21 10:53:00
6:53 AM,23.0,17.1,78,30.15,10.0,WNW,4.6,-,N/A,,Scattered Clouds,290,2013-01-21 11:53:00
7:53 AM,24.1,15.1,69,30.16,10.0,SW,3.5,-,N/A,,Clear,230,2013-01-21 12:53:00
8:53 AM,25.0,16.0,69,30.17,10.0,SW,4.6,-,N/A,,Clear,230,2013-01-21 13:53:00
9:53 AM,27.0,16.0,63,30.19,10.0,West,9.2,-,N/A,,Clear,270,2013-01-21 14:53:00
10:53 AM,30.9,10.0,42,30.20,10.0,West,12.7,-,N/A,,Clear,260,2013-01-21 15:53:00
11:53 AM,33.1,10.9,40,30.18,10.0,WSW,13.8,-,N/A,,Clear,250,2013-01-21 16:53:00
12:53 PM,35.1,12.0,39,30.14,10.0,West,18.4,24.2,N/A,,Clear,260,2013-01-21 17:53:00
1:53 PM,35.1,12.9,40,30.12,10.0,WNW,16.1,24.2,N/A,,Clear,290,2013-01-21 18:53:00
2:53 PM,35.1,9.0,34,30.13,10.0,West,25.3,32.2,N/A,,Clear,260,2013-01-21 19:53:00
3:53 PM,35.1,10.9,37,30.13,10.0,West,13.8,21.9,N/A,,Clear,260,2013-01-21 20:53:00
4:53 PM,33.1,8.1,35,30.15,10.0,WNW,9.2,-,N/A,,Clear,300,2013-01-21 21:53:00
5:53 PM,28.9,8.1,41,30.17,10.0,WNW,6.9,-,N/A,,Clear,300,2013-01-21 22:53:00
6:53 PM,27.0,7.0,43,30.18,10.0,WNW,6.9,-,N/A,,Clear,290,2013-01-21 23:53:00
7:53 PM,26.1,8.1,47,30.19,10.0,WNW,12.7,18.4,N/A,,Clear,300,2013-01-22 00:53:00
8:53 PM,25.0,7.0,46,30.22,10.0,WNW,11.5,17.3,N/A,,Clear,300,2013-01-22 01:53:00
9:53 PM,23.0,3.0,42,30.24,10.0,WNW,6.9,-,N/A,,Overcast,290,2013-01-22 02:53:00
10:53 PM,21.0,3.0,46,30.25,10.0,WNW,6.9,-,N/A,,Mostly Cloudy,300,2013-01-22 03:53:00
11:53 PM,19.9,3.0,48,30.25,10.0,WNW,11.5,-,N/A,,Mostly Cloudy,300,2013-01-22 04:53:00